viernes 13 diciembre, 2019
Inicio / NACIONALES / TN / Clase 2 / KIRSTEIN «CORTÓ LA CINTA» EN EL PARQUE DE LA VELOCIDAD

KIRSTEIN «CORTÓ LA CINTA» EN EL PARQUE DE LA VELOCIDAD

Damián Kirstein dominó el primer entrenamiento de Turismo Nacional Clase 2 en el remozado «Autódromo Parque de la Velocidad» (San Jorge, Santa Fe), sobre el Peugeot 208 del equipo FF Racing, estrenando motorización de Esteban Pou.

El piloto chaqueño registró el mejor tiempo durante el ensayo inicial la divisional menor del TN en el trazado santafesino, escenario de la 10º fecha del Campeonato Argentino 2019 – Copa Fiat 100 años, Trofeo Ford Camiones, en el marco del Gran Premio Máquinas Agrícolas y Remolques Ombu en camino a sus 30 años.

Así, «Monchi», quien este fin de semana regresa a la actividad, llevó al «León» de la marca francesa, atendido por el equipo FF Racing al primer lugar, con 1m28s623 en la vuelta más veloz.

Registros completos del primer cronometrado del fin de semana:

Puesto Piloto Marca Vtas. Tiempo Dif.
1 26 Damian KIRSTEIN PEUGEOT 208 14 1:28.623
2 43 Walter LOPEZ NISSAN MARCH 12 1:28.894 0.271
3 7 Maximiliano BESTANI NISSAN MARCH 13 1:28.971 0.348
4 31 Facundo LEANEZ TOYOTA ETIOS 14 1:28.982 0.359
5 13 Joel BORGOBELLO VW TREND 12 1:29.031 0.408
6 14 Ever FRANETOVICH FIAT PALIO 9 1:29.054 0.431
7 5 Gaston GRASSO TOYOTA ETIOS 13 1:29.086 0.463
8 6 Miguel CIAURRO VW TREND 12 1:29.114 0.491
9 120 Geronimo NUNEZ NISSAN MARCH 12 1:29.121 0.498
10 36 Alejo BORGIANI VW TREND 13 1:29.355 0.732
11 11 Gaston IANSA FIESTA KINETIC 11 1:29.375 0.752
12 150 Damian MARKEL TOYOTA ETIOS 12 1:29.378 0.755
13 25 Sebastian PEREZ CHEVROLET ONIX 11 1:29.395 0.772
14 18 Marcos FERNANDEZ NISSAN MARCH 12 1:29.617 0.994
15 69 Agustin HERRERA RENAULT CLIO 12 1:29.664 1.041
16 63 Renzo TESTA FIAT PALIO 12 1:29.673 1.050
17 9 Juan M. ELUCHANS TOYOTA ETIOS 10 1:29.724 1.101
18 32 Sergio FERNANDEZ NISSAN MARCH 10 1:29.821 1.198
19 73 Lucas BAGNERA RENAULT CLIO 12 1:29.896 1.273
20 178 Ramiro ALCAINE TOYOTA ETIOS 11 1:29.910 1.287
21 141 Juan Pablo ROTONDO FIESTA KINETIC 12 1:29.958 1.335
22 66 Martin ALESSI RENAULT CLIO 12 1:29.977 1.354
23 72 Lucas TEDESCHI TOYOTA ETIOS 10 1:30.063 1.440
24 112 Damian ROMERO TOYOTA ETIOS 11 1:30.096 1.473
25 65 Fernando GOMEZ FREDES NISSAN MARCH 15 1:30.128 1.505
26 2 Juan P. PASTORI TOYOTA ETIOS 15 1:30.220 1.597
27 78 Alejandro WEIMANN TOYOTA ETIOS 9 1:30.248 1.625
28 100 Ian REUTEMANN FIESTA KINETIC 8 1:30.575 1.952
29 35 Diego LEANEZ TOYOTA ETIOS 15 1:30.626 2.003
30 99 Luciano GONZALEZ RENAULT CLIO 11 1:30.743 2.120
31 199 Emiliano GIACOPONI CHEVROLET CORSA 11 1:30.791 2.168
32 24 Juan I. CANELA FIESTA KINETIC 10 1:31.302 2.679
33 21 Gabriel SCORDIA FIESTA KINETIC 11 1:31.717 3.094
34 114 Matias SIGNORELLI NISSAN MARCH 11 1:31.908 3.285
35 47 Ignacio PROCACITTO VW TREND 11 1:31.935 3.312
36 79 Andres CALDERON VW TREND 10 1:31.983 3.360
37 54 Facundo ROTONDO FIESTA KINETIC 12 1:32.274 3.651
38 52 Gustavo ACUÑA VW TREND 12 1:33.349 4.726
39 39 Alejandro VALDERREY FIAT PALIO 2 7:10.495 5:41.872
40 1 Nicolas POSCO FIESTA KINETIC 1 13:28.849 12:00.226

 

 

 

 

 

 

 

 

 

Fuente y foto: apat.org.ar

Te puede interesar

FRANETOVICH SE ADJUDICA EL TÍTULO 2019 DE LA CLASE 2

Con el quinto puesto obtenido en la final en San Nicolás, Ever Franetovich se consagró …